DateTimeUTC,F1_A11,F1_S11,BsB_S11,BsG_S11,BsR_S11,BbsB_S11,BbsG_S11,BbsR_S11,BaB_A11,BaG_A11,BaR_A11,Tu_S11,T_S11,Uu_S11,U_S11,P_S11,T1_A11
2021-08-25T08:00:00Z,00000200,20000000,,,,,,,0000.04,-000.19,-000.56,19.1,25.7,10.2,06.8,0677.1,31.0
2021-08-25T08:01:00Z,00000200,20000000,,,,,,,-000.25,0000.30,0000.34,19.0,25.7,10.2,06.8,0677.1,31.0
2021-08-25T08:02:00Z,00000200,20000000,,,,,,,0000.44,0000.05,-000.08,19.0,25.7,10.2,06.8,0677.1,31.0
2021-08-25T08:03:00Z,00000200,60000000,,,,,,,0000.43,0000.02,0000.25,19.0,25.7,10.2,06.8,0677.1,31.0
2021-08-25T08:04:00Z,00000200,40000000,0003.37,0002.77,0001.89,0001.29,0000.33,0000.51,0000.56,0000.82,0000.60,19.1,25.5,10.2,06.9,0678.0,31.0
2021-08-25T08:05:00Z,00000200,00000000,0002.68,0002.62,0001.59,0000.88,0000.35,0000.05,0000.50,0000.43,0000.52,19.2,25.5,10.2,07.0,0678.1,31.0
2021-08-25T08:06:00Z,00000200,00000000,0003.38,0002.48,0001.53,0000.83,0000.70,0000.08,0000.35,0000.43,0000.20,19.2,25.5,10.3,07.0,0678.1,31.0
2021-08-25T08:07:00Z,00000200,00000000,0003.63,0002.20,0001.95,0000.82,0000.20,0000.53,0001.07,0001.00,0000.74,19.2,25.5,10.3,07.0,0678.1,31.0
2021-08-25T08:08:00Z,00000200,00000000,0003.08,0002.74,0001.93,0000.78,0000.48,0000.26,0000.53,0000.26,0000.42,19.2,25.5,10.3,07.0,0678.1,31.0
2021-08-25T08:09:00Z,00000200,00000000,0003.43,0002.41,0001.59,0000.81,0000.53,-000.02,0000.78,0000.61,0000.37,19.1,25.4,10.3,07.0,0678.1,31.0
2021-08-25T08:10:00Z,00000200,00000000,0003.16,0002.84,0001.94,0000.65,0000.70,0000.50,0000.42,0001.01,0000.37,19.1,25.4,10.3,07.1,0678.0,31.0
2021-08-25T08:11:00Z,00000200,00000000,0003.18,0002.70,0001.85,0000.41,0000.56,-000.12,0000.63,0000.25,0000.51,19.1,25.4,10.3,07.0,0678.1,31.0
2021-08-25T08:12:00Z,00000200,00000000,0004.01,0002.58,0001.97,0000.53,0000.66,-000.11,0000.40,0000.27,0000.23,19.1,25.4,10.4,07.1,0678.1,31.0
2021-08-25T08:13:00Z,00000200,00000000,0003.47,0002.50,0001.66,0000.51,0000.60,-000.15,0000.82,0000.60,0000.95,19.1,25.4,10.3,07.0,0678.1,31.0
2021-08-25T08:14:00Z,00000200,00000000,0002.88,0002.49,0002.16,0000.65,0000.66,0000.27,0000.72,0000.91,0000.21,19.1,25.4,10.3,07.0,0678.1,31.0
2021-08-25T08:15:00Z,00000200,00000000,0003.44,0002.36,0001.78,0000.75,0000.13,0000.13,0000.59,0000.55,0000.49,19.1,25.4,10.4,07.1,0678.1,31.0
2021-08-25T08:16:00Z,00000200,00000000,0003.06,0002.71,0001.63,0000.99,0000.56,0000.20,0000.42,0000.59,0000.43,19.1,25.4,10.3,07.1,0678.1,31.0
2021-08-25T08:17:00Z,00000200,00000000,0002.69,0002.63,0001.78,-000.14,0000.51,0000.24,0000.67,0000.35,0000.70,19.1,25.4,10.3,07.0,0678.1,31.0
2021-08-25T08:18:00Z,00000200,00000000,0003.26,0002.54,0002.07,0000.63,0000.21,0000.19,0000.92,0001.11,0000.43,19.1,25.4,10.3,07.0,0678.1,31.0
2021-08-25T08:19:00Z,00000200,00000000,0003.46,0002.58,0001.93,0000.25,0000.55,0000.26,0000.78,0000.30,0000.44,19.1,25.4,10.2,07.0,0678.1,31.0
2021-08-25T08:20:00Z,00000200,00000000,0003.14,0002.47,0001.81,0000.66,0000.27,-000.01,0000.20,0000.67,0000.60,19.2,25.4,10.3,07.0,0678.1,31.0
2021-08-25T08:21:00Z,00000200,00000000,0003.80,0002.60,0001.85,0000.47,0000.46,0000.24,0000.85,0000.66,0000.33,19.2,25.4,10.2,07.0,0678.0,31.0
2021-08-25T08:22:00Z,00000200,00000000,0003.68,0002.51,0002.18,0000.66,0000.26,0000.14,0000.40,0000.12,0000.55,19.2,25.4,10.3,07.0,0678.0,31.0
2021-08-25T08:23:00Z,00000200,00000000,0004.08,0002.39,0001.85,0000.78,0000.32,-000.26,0000.59,0001.06,0000.49,19.2,25.4,10.2,07.0,0678.1,31.0
2021-08-25T08:24:00Z,00000200,00000000,0003.95,0002.36,0002.12,0000.62,0000.27,0000.08,0000.83,0000.63,0000.57,19.2,25.4,10.3,07.1,0678.1,31.0
2021-08-25T08:25:00Z,00000200,00000000,0002.74,0002.20,0001.82,0000.62,0000.35,0000.07,0000.92,0000.32,0000.19,19.2,25.4,10.2,07.0,0678.1,31.0
2021-08-25T08:26:00Z,00000200,00000000,0003.00,0002.78,0001.96,0000.85,0000.51,0000.18,0000.18,0000.89,0000.73,19.2,25.4,10.3,07.0,0678.1,31.0
2021-08-25T08:27:00Z,00000200,00000000,0002.71,0002.63,0001.85,0001.19,0000.43,0000.05,0000.85,0000.35,0000.24,19.2,25.4,10.3,07.0,0678.1,31.0
2021-08-25T08:28:00Z,00000200,00000000,0002.65,0002.43,0002.18,0000.48,0000.46,0000.35,0000.72,0000.75,0000.53,19.2,25.4,10.3,07.0,0678.0,31.0
2021-08-25T08:29:00Z,00000200,00000000,0002.67,0002.59,0002.00,0000.65,0000.47,0000.34,0000.50,0000.57,0000.70,19.2,25.4,10.2,07.0,0678.0,31.0
2021-08-25T08:30:00Z,00000200,00000000,0004.11,0002.82,0001.71,0000.68,0000.27,0000.35,0000.76,0000.45,0000.46,19.2,25.4,10.3,07.0,0678.1,31.0
2021-08-25T08:31:00Z,00000200,00000000,0003.06,0002.56,0001.96,0000.66,0000.72,0000.45,0000.69,0000.86,0000.76,19.2,25.4,10.2,07.0,0678.1,31.0
2021-08-25T08:32:00Z,00000200,00000000,0003.75,0002.49,0002.00,0000.97,0000.66,0000.44,0000.47,0000.54,0000.33,19.2,25.4,10.2,07.0,0678.0,31.0
2021-08-25T08:33:00Z,00000200,00000000,0002.80,0002.63,0002.18,0000.91,0000.31,0000.38,0000.54,0000.42,0000.19,19.2,25.4,10.1,06.9,0678.0,31.0
2021-08-25T08:34:00Z,00000200,00000000,0002.73,0003.04,0002.32,0000.21,0000.14,0000.53,0000.90,0000.51,0000.78,19.2,25.4,10.1,06.9,0678.1,31.0
2021-08-25T08:35:00Z,00000200,00000000,0003.09,0002.69,0002.19,-000.26,0000.44,-000.05,0000.56,0000.76,0000.23,19.2,25.4,10.2,07.0,0678.1,31.0
2021-08-25T08:36:00Z,00000200,00000000,0003.17,0002.92,0002.40,0000.91,0000.10,0000.29,0000.29,0000.72,0000.34,19.2,25.4,10.1,06.9,0678.1,31.0
2021-08-25T08:37:00Z,00000200,00000000,0003.99,0002.67,0002.03,0000.46,0000.54,0000.14,0001.18,0000.53,0000.81,19.2,25.4,10.1,06.9,0678.1,31.0
2021-08-25T08:38:00Z,00000200,00000000,0003.78,0002.54,0001.96,0000.90,0000.26,-000.22,0000.57,0000.63,0000.63,19.2,25.4,10.1,06.9,0678.1,31.0
2021-08-25T08:39:00Z,00000200,00000000,0004.08,0003.00,0002.32,0001.37,0000.43,0000.12,-000.93,-000.96,-000.77,19.2,25.4,10.0,06.8,0678.0,31.1
2021-08-25T08:40:00Z,00000200,00000000,0004.88,0003.81,0002.63,0000.65,0000.63,0000.25,0000.87,0001.09,0000.71,19.2,25.4,08.9,06.1,0678.1,31.0
2021-08-25T08:41:00Z,00000200,00000000,0004.66,0002.95,0002.13,0000.72,0000.46,-000.07,0001.56,0001.12,0001.15,19.2,25.4,09.5,06.5,0678.1,31.0
2021-08-25T08:42:00Z,00000200,00000000,0003.95,0002.95,0002.23,0000.19,0000.46,0000.25,0000.68,0001.28,0000.99,19.2,25.4,09.8,06.7,0678.0,31.0
2021-08-25T08:43:00Z,00000200,00000000,0003.32,0003.18,0002.28,0000.55,0000.55,0000.25,0000.77,0000.57,0000.68,19.2,25.4,09.8,06.7,0678.1,31.0
2021-08-25T08:44:00Z,00000200,00000000,0003.87,0003.31,0002.46,0000.37,0000.63,0000.08,0001.07,0000.51,0000.19,19.2,25.4,09.7,06.7,0678.0,31.0
2021-08-25T08:45:00Z,00000200,00000000,0004.14,0003.65,0002.72,0000.31,0000.61,0000.08,-000.15,0000.17,0000.33,19.1,25.4,09.5,06.5,0678.0,31.0
2021-08-25T08:46:00Z,00000200,00000000,0004.87,0003.77,0002.96,0000.61,0001.03,0000.18,0001.11,0000.56,0000.54,19.1,25.4,09.1,06.3,0678.0,31.0
2021-08-25T08:47:00Z,00000200,00000000,0004.24,0003.45,0003.00,0001.13,0000.42,0000.21,0001.01,0001.01,0000.73,19.2,25.4,09.2,06.3,0678.0,31.0
2021-08-25T08:48:00Z,00000200,00000000,0005.06,0004.05,0003.13,0001.10,0000.57,0000.46,0000.68,0000.58,0000.66,19.2,25.4,09.1,06.3,0678.0,31.0
2021-08-25T08:49:00Z,00000200,00000000,0004.63,0003.93,0002.82,0000.50,0000.50,0000.12,0001.11,0001.24,0000.74,19.1,25.4,09.2,06.3,0678.0,31.0
2021-08-25T08:50:00Z,00000200,00000000,0005.22,0004.09,0002.77,0000.76,0000.73,0000.34,0000.96,0000.97,0000.65,19.1,25.3,09.4,06.4,0678.0,31.0
2021-08-25T08:51:00Z,00000200,00000000,0004.53,0004.50,0003.39,0000.62,0000.90,0000.71,0001.03,0001.00,0000.75,19.1,25.3,09.4,06.4,0678.0,31.0
2021-08-25T08:52:00Z,00000200,00000000,0004.78,0003.47,0002.56,0000.56,0000.40,0000.37,0000.90,0000.83,0000.98,19.1,25.3,09.4,06.5,0678.0,31.0
2021-08-25T08:53:00Z,00000200,00000000,0005.25,0003.53,0002.79,0001.28,0000.59,0000.37,0000.85,0000.90,0000.55,19.1,25.3,09.4,06.5,0678.0,31.0
2021-08-25T08:54:00Z,00000200,00000000,0004.49,0003.41,0002.57,0000.25,0000.56,0000.05,0001.37,0000.65,0000.71,19.1,25.4,09.5,06.5,0678.0,31.0
2021-08-25T08:55:00Z,00000200,00000000,0005.08,0003.57,0002.86,0001.16,0000.21,0000.42,0000.67,0001.05,0000.90,19.1,25.3,09.6,06.5,0678.0,31.0
2021-08-25T08:56:00Z,00000200,00000000,0004.34,0003.70,0002.81,0000.76,0000.49,0000.28,0000.57,0000.45,0000.23,19.1,25.4,09.5,06.5,0678.0,31.0
2021-08-25T08:57:00Z,00000200,40000000,,,,,,,0000.57,0000.93,0000.45,19.2,25.4,08.9,06.1,0678.0,31.0
2021-08-25T08:58:00Z,00000200,60000000,,,,,,,0000.13,-000.22,0000.07,18.9,25.5,09.8,06.5,0677.0,31.0
2021-08-25T08:59:00Z,00000200,20000000,,,,,,,-000.28,-000.09,0000.05,18.9,25.6,09.8,06.5,0677.0,31.0
